Погода в Тернополе

Украина / Тернопольская область     49°33′21″N   25°35′26″E
темп.,
°C
ветер,
м/с
пор.,
м/с
влажн.,
%
обл.,
%
осадки,
мм/ч
давл.,
гПа
погр.,
м
8 мая, сб
сб800:00+8зсз41094100 0.1 1009331
03:00+6зсз81386100 1.3 1012937
06:00+4зсз81391100 0.3 1014778
09:00+3зсз81391100 0.4 10171086
12:00+5зсз71284100 0.1 10191231
15:00+8зсз9116494 0.3 10201651
18:00+8зсз696216 0.2 10201385
21:00+5зсз35825 0.2 102273
9 мая, вс
вс900:00+3зсз34875 0.0 102363
03:00+2з34883 0.0 102561
06:00+2з33895 0.0 102645
09:00+8зсз226410 0.0 1026335
12:00+12юз23475 0.0 10261678
15:00+14юз334496 0.0 10251932
18:00+14ю234731 0.0 10241302
21:00+9ююв47695 0.0 1025114
10 мая, пн
пн1000:00+7юв4127151 0.0 1026222
03:00+7юв413678 0.0 1026289
06:00+6юв513675 0.0 1025292
09:00+11юв712628 0.0 1025475
12:00+15юв911565 0.0 1024940
15:00+17ююв910537 0.0 10231175
18:00+17юв7106290 0.0 1022976
21:00+12юв513709 0.0 1023425
11 мая, вт
вт1100:00+10юв615722 0.0 1024403
03:00+9юв616704 0.0 1023399
06:00+8юв616730 0.0 1023387
09:00+12юв814650 0.0 1023604
12:00+16юв811530 0.0 1022935
15:00+18юв89480 0.0 10211141
18:00+17вюв79540 0.0 10201027
21:00+12вюв513710 0.0 1020273
12 мая, ср
ср1200:00+11юв514810 0.0 1019341
03:00+10вюв514900 0.0 1018327
06:00+9вюв512950 0.0 1017294
09:00+13юв7108248 0.0 1016613
12:00+16вюв89600 0.0 10141165
15:00+17вюв79489 0.0 10131587
18:00+13вюв81070100 0.0 1012793
21:00+11в71376100 0.0 1012745